sat.trackr.live / text

‹ back to catalog

IRIDIUM 162

NORAD 43482 · 2018-047G

PAYLOAD ACTIVE UNKNOWN

§ Identity

Operator
Country
US
Launch date
2018-05-22
Launch site
AFWTR
Launch vehicle
Mass (kg)
RCS (m²)

Purposes: comms

External: N2YO · Heavens-Above · Gunter

§ Orbital elements

Epoch: 2026-05-25T03:28:35.249088Z

Period
99.77 min
Inclination
86.4468°
Eccentricity
0.0002465
Mean motion
14.43279499 rev/d
Perigee alt
745.9 km
Apogee alt
749.4 km
Semi-major
7,125.8 km
B*
6.9141e-5
RAAN
97.9963°
Arg perigee
84.7199°
Mean anomaly
275.4283°
Rev number
42,180

§ Raw data

IRIDIUM 1621 43482U 18047G   26145.14485242  .00000253  00000+0  69141-4 0  99932 43482  86.4468  97.9963 0002465  84.7199 275.4283 14.43279499421805

JSON: /api/v1/satellites/43482 · /tle

For live sub-satellite position, see the globe view (requires WebGL).

§ Visibility from observer

Set your observer location to see the next 7 days of passes ≥ 10°. The values pass through the URL so the page stays shareable.

No JS? Fill the form by hand. The geolocation button needs JavaScript.